,,PressureMeas_1m,,PRMeasQMR101_1,,RHStat155_1m_1,,SRMeasQMS101R_1m,,TAStat155_1m_1,,GenWind_1,,GenWind_1,
2018-12-02, 07:00:07,VALID,916.408,VALID,0.0,VALID,98.625,VALID,71.86,VALID,19.428,VALID,123.0,VALID,0.0,
2018-12-02, 07:01:07,VALID,916.399,VALID,0.0,VALID,98.58,VALID,73.009,VALID,19.382,VALID,135.0,VALID,0.0,
2018-12-02, 07:02:07,VALID,916.389,VALID,0.0,VALID,98.55,VALID,74.195,VALID,19.375,VALID,145.0,VALID,0.0,
2018-12-02, 07:03:07,VALID,916.383,VALID,0.0,VALID,98.573,VALID,74.994,VALID,19.378,VALID,122.0,VALID,0.0,
2018-12-02, 07:04:07,VALID,916.369,VALID,0.0,VALID,98.615,VALID,75.818,VALID,19.381,VALID,134.0,VALID,0.0,
2018-12-02, 07:05:07,VALID,916.369,VALID,0.0,VALID,98.571,VALID,76.278,VALID,19.345,VALID,129.0,VALID,0.0,
2018-12-02, 07:06:07,VALID,916.366,VALID,0.0,VALID,98.558,VALID,76.968,VALID,19.34,VALID,130.0,VALID,0.0,
2018-12-02, 07:07:07,VALID,916.374,VALID,0.0,VALID,98.531,VALID,77.711,VALID,19.328,VALID,135.0,VALID,0.0,
2018-12-02, 07:08:07,VALID,916.378,VALID,0.0,VALID,98.517,VALID,78.682,VALID,19.336,VALID,129.0,VALID,0.0,
2018-12-02, 07:09:07,VALID,916.377,VALID,0.0,VALID,98.527,VALID,79.917,VALID,19.368,VALID,125.0,VALID,0.0,
2018-12-02, 07:10:07,VALID,916.386,VALID,0.0,VALID,98.463,VALID,81.486,VALID,19.395,VALID,130.0,VALID,0.0,
2018-12-02, 07:11:07,VALID,916.397,VALID,0.0,VALID,98.349,VALID,83.261,VALID,19.398,VALID,127.0,VALID,0.0,
2018-12-02, 07:12:07,VALID,916.418,VALID,0.0,VALID,98.165,VALID,84.854,VALID,19.411,VALID,128.0,VALID,0.0,
2018-12-02, 07:13:07,VALID,916.421,VALID,0.0,VALID,97.921,VALID,86.32,VALID,19.427,VALID,127.0,VALID,0.0,
2018-12-02, 07:14:06,VALID,916.414,VALID,0.0,VALID,97.765,VALID,88.075,VALID,19.482,VALID,140.0,VALID,0.0,
2018-12-02, 07:15:06,VALID,916.42,VALID,0.0,VALID,97.616,VALID,89.769,VALID,19.508,VALID,122.0,VALID,0.0,
2018-12-02, 07:16:06,VALID,916.45,VALID,0.0,VALID,97.447,VALID,91.509,VALID,19.556,VALID,130.0,VALID,0.0,
2018-12-02, 07:17:06,VALID,916.452,VALID,0.0,VALID,97.311,VALID,93.199,VALID,19.602,VALID,126.0,VALID,0.0,
2018-12-02, 07:18:06,VALID,916.46,VALID,0.0,VALID,97.167,VALID,94.908,VALID,19.632,VALID,109.0,VALID,0.0,
2018-12-02, 07:19:06,VALID,916.466,VALID,0.0,VALID,97.071,VALID,96.629,VALID,19.67,VALID,112.0,VALID,0.0,
2018-12-02, 07:20:06,VALID,916.449,VALID,0.0,VALID,96.873,VALID,98.314,VALID,19.703,VALID,106.0,VALID,0.0,
2018-12-02, 07:21:06,VALID,916.467,VALID,0.0,VALID,96.565,VALID,99.939,VALID,19.761,VALID,106.0,VALID,0.0,
2018-12-02, 07:22:06,VALID,916.48,VALID,0.0,VALID,96.066,VALID,101.395,VALID,19.794,VALID,104.0,VALID,0.0,
2018-12-02, 07:23:06,VALID,916.498,VALID,0.0,VALID,95.544,VALID,102.709,VALID,19.85,VALID,99.0,VALID,0.0,
2018-12-02, 07:24:06,VALID,916.481,VALID,0.0,VALID,95.228,VALID,103.955,VALID,19.904,VALID,106.0,VALID,0.0,
2018-12-02, 07:25:06,VALID,916.516,VALID,0.0,VALID,95.067,VALID,105.184,VALID,19.925,VALID,97.0,VALID,0.0,
2018-12-02, 07:26:06,VALID,916.547,VALID,0.0,VALID,95.073,VALID,106.375,VALID,19.941,VALID,96.0,VALID,0.0,
2018-12-02, 07:27:06,VALID,916.553,VALID,0.0,VALID,95.092,VALID,107.648,VALID,19.956,VALID,97.0,VALID,0.0,
2018-12-02, 07:28:06,VALID,916.561,VALID,0.0,VALID,94.971,VALID,109.025,VALID,19.944,VALID,105.0,VALID,0.0,
2018-12-02, 07:29:06,VALID,916.591,VALID,0.0,VALID,95.105,VALID,110.506,VALID,19.953,VALID,101.0,VALID,0.0,
2018-12-02, 07:30:06,VALID,916.597,VALID,0.0,VALID,95.165,VALID,112.158,VALID,19.962,VALID,105.0,VALID,0.0,
2018-12-02, 07:31:06,VALID,916.597,VALID,0.0,VALID,95.057,VALID,113.886,VALID,19.983,VALID,104.0,VALID,0.0,
2018-12-02, 07:32:06,VALID,916.617,VALID,0.0,VALID,95.167,VALID,115.809,VALID,20.036,VALID,126.0,VALID,0.0,
2018-12-02, 07:33:06,VALID,916.625,VALID,0.0,VALID,95.348,VALID,117.837,VALID,20.071,VALID,112.0,VALID,0.0,
2018-12-02, 07:34:06,VALID,916.616,VALID,0.0,VALID,95.362,VALID,120.126,VALID,20.101,VALID,110.0,VALID,0.0,
2018-12-02, 07:35:06,VALID,916.615,VALID,0.0,VALID,95.663,VALID,122.734,VALID,20.138,VALID,97.0,VALID,0.0,
2018-12-02, 07:36:06,VALID,916.636,VALID,0.0,VALID,95.225,VALID,125.865,VALID,20.143,VALID,110.0,VALID,0.0,
2018-12-02, 07:37:06,VALID,916.644,VALID,0.0,VALID,95.003,VALID,129.336,VALID,20.149,VALID,109.0,VALID,0.0,
2018-12-02, 07:38:06,VALID,916.646,VALID,0.0,VALID,95.015,VALID,132.928,VALID,20.188,VALID,108.0,VALID,0.0,
2018-12-02, 07:39:06,VALID,916.647,VALID,0.0,VALID,95.223,VALID,136.887,VALID,20.241,VALID,100.0,VALID,0.0,
2018-12-02, 07:40:06,VALID,916.65,VALID,0.0,VALID,94.499,VALID,140.867,VALID,20.222,VALID,108.0,VALID,0.0,
2018-12-02, 07:41:06,VALID,916.659,VALID,0.0,VALID,94.532,VALID,144.484,VALID,20.244,VALID,107.0,VALID,0.0,
2018-12-02, 07:42:06,VALID,916.673,VALID,0.0,VALID,94.436,VALID,147.606,VALID,20.265,VALID,101.0,VALID,0.0,
2018-12-02, 07:43:06,VALID,916.696,VALID,0.0,VALID,94.847,VALID,150.163,VALID,20.319,VALID,130.0,VALID,0.0,
2018-12-02, 07:44:06,VALID,916.687,VALID,0.0,VALID,95.099,VALID,151.974,VALID,20.367,VALID,146.0,VALID,0.0,
2018-12-02, 07:45:06,VALID,916.694,VALID,0.0,VALID,95.079,VALID,153.907,VALID,20.382,VALID,147.0,VALID,0.0,
2018-12-02, 07:46:06,VALID,916.695,VALID,0.0,VALID,94.708,VALID,155.719,VALID,20.368,VALID,117.0,VALID,0.0,
2018-12-02, 07:47:06,VALID,916.713,VALID,0.0,VALID,94.426,VALID,157.288,VALID,20.37,VALID,140.0,VALID,0.0,
2018-12-02, 07:48:06,VALID,916.699,VALID,0.0,VALID,94.255,VALID,158.406,VALID,20.371,VALID,124.0,VALID,0.0,
2018-12-02, 07:49:06,VALID,916.728,VALID,0.0,VALID,94.653,VALID,159.597,VALID,20.426,VALID,151.0,VALID,0.0,
2018-12-02, 07:50:06,VALID,916.734,VALID,0.0,VALID,94.724,VALID,160.946,VALID,20.461,VALID,133.0,VALID,0.0,
2018-12-02, 07:51:06,VALID,916.734,VALID,0.0,VALID,94.89,VALID,162.813,VALID,20.483,VALID,131.0,VALID,0.0,
2018-12-02, 07:52:06,VALID,916.745,VALID,0.0,VALID,94.593,VALID,165.197,VALID,20.486,VALID,163.0,VALID,0.0,
2018-12-02, 07:53:06,VALID,916.768,VALID,0.0,VALID,94.26,VALID,168.111,VALID,20.481,VALID,186.0,VALID,0.0,
2018-12-02, 07:54:06,VALID,916.775,VALID,0.0,VALID,94.503,VALID,171.309,VALID,20.498,VALID,175.0,VALID,0.0,
2018-12-02, 07:55:06,VALID,916.805,VALID,0.0,VALID,94.306,VALID,174.543,VALID,20.503,VALID,171.0,VALID,0.0,
2018-12-02, 07:56:06,VALID,916.803,VALID,0.0,VALID,94.379,VALID,177.786,VALID,20.514,VALID,139.0,VALID,0.0,
2018-12-02, 07:57:06,VALID,916.808,VALID,0.0,VALID,94.353,VALID,180.974,VALID,20.49,VALID,125.0,VALID,0.0,
2018-12-02, 07:58:06,VALID,916.833,VALID,0.0,VALID,94.643,VALID,184.08,VALID,20.506,VALID,113.0,VALID,0.0,
2018-12-02, 07:59:06,VALID,916.839,VALID,0.0,VALID,94.306,VALID,186.83,VALID,20.497,VALID,124.0,VALID,0.0,
2018-12-02, 08:00:06,VALID,916.858,VALID,0.0,VALID,94.135,VALID,189.018,VALID,20.513,VALID,169.0,VALID,0.0,
2018-12-02, 08:01:06,VALID,916.853,VALID,0.0,VALID,94.262,VALID,190.524,VALID,20.525,VALID,122.0,VALID,0.0,
2018-12-02, 08:02:06,VALID,916.86,VALID,0.0,VALID,94.522,VALID,191.458,VALID,20.561,VALID,122.0,VALID,0.0,
2018-12-02, 08:03:06,VALID,916.876,VALID,0.0,VALID,94.705,VALID,191.819,VALID,20.593,VALID,146.0,VALID,0.0,
2018-12-02, 08:04:06,VALID,916.89,VALID,0.0,VALID,94.18,VALID,191.88,VALID,20.603,VALID,137.0,VALID,0.0,
2018-12-02, 08:05:06,VALID,916.898,VALID,0.0,VALID,93.642,VALID,192.304,VALID,20.565,VALID,126.0,VALID,0.0,
2018-12-02, 08:06:06,VALID,916.899,VALID,0.0,VALID,93.83,VALID,193.251,VALID,20.55,VALID,145.0,VALID,0.0,
2018-12-02, 08:07:06,VALID,916.894,VALID,0.0,VALID,94.395,VALID,194.737,VALID,20.597,VALID,136.0,VALID,0.0,
2018-12-02, 08:08:06,VALID,916.892,VALID,0.0,VALID,94.464,VALID,196.505,VALID,20.635,VALID,130.0,VALID,0.0,
2018-12-02, 08:09:06,VALID,916.884,VALID,0.0,VALID,93.825,VALID,198.344,VALID,20.639,VALID,149.0,VALID,0.0,
2018-12-02, 08:10:06,VALID,916.895,VALID,0.0,VALID,94.119,VALID,200.035,VALID,20.682,VALID,140.0,VALID,0.0,
2018-12-02, 08:11:06,VALID,916.877,VALID,0.0,VALID,93.869,VALID,201.332,VALID,20.709,VALID,132.0,VALID,0.0,
2018-12-02, 08:12:06,VALID,916.87,VALID,0.0,VALID,94.158,VALID,202.32,VALID,20.733,VALID,128.0,VALID,0.0,
2018-12-02, 08:13:06,VALID,916.885,VALID,0.0,VALID,94.039,VALID,203.125,VALID,20.756,VALID,130.0,VALID,0.0,
2018-12-02, 08:14:06,VALID,916.89,VALID,0.0,VALID,93.652,VALID,203.767,VALID,20.737,VALID,115.0,VALID,0.0,
2018-12-02, 08:15:06,VALID,916.886,VALID,0.0,VALID,93.638,VALID,204.496,VALID,20.707,VALID,121.0,VALID,0.0,
2018-12-02, 08:16:06,VALID,916.9,VALID,0.0,VALID,93.223,VALID,205.569,VALID,20.691,VALID,120.0,VALID,0.0,
2018-12-02, 08:17:06,VALID,916.888,VALID,0.0,VALID,93.584,VALID,206.966,VALID,20.704,VALID,124.0,VALID,0.0,
2018-12-02, 08:18:06,VALID,916.894,VALID,0.0,VALID,93.882,VALID,208.784,VALID,20.745,VALID,125.0,VALID,0.0,
2018-12-02, 08:19:06,VALID,916.899,VALID,0.0,VALID,94.171,VALID,211.107,VALID,20.815,VALID,119.0,VALID,0.0,
2018-12-02, 08:20:06,VALID,916.889,VALID,0.0,VALID,93.898,VALID,213.883,VALID,20.849,VALID,131.0,VALID,0.0,
2018-12-02, 08:21:06,VALID,916.887,VALID,0.0,VALID,93.821,VALID,216.545,VALID,20.909,VALID,126.0,VALID,0.0,
2018-12-02, 08:22:06,VALID,916.878,VALID,0.0,VALID,93.314,VALID,219.03,VALID,20.944,VALID,138.0,VALID,0.0,
2018-12-02, 08:23:06,VALID,916.881,VALID,0.0,VALID,93.34,VALID,221.137,VALID,21.02,VALID,138.0,VALID,0.0,
2018-12-02, 08:24:06,VALID,916.858,VALID,0.0,VALID,92.92,VALID,222.837,VALID,21.035,VALID,133.0,VALID,0.0,
2018-12-02, 08:25:06,VALID,916.849,VALID,0.0,VALID,92.349,VALID,223.805,VALID,21.033,VALID,135.0,VALID,0.0,
2018-12-02, 08:26:06,VALID,916.846,VALID,0.0,VALID,92.972,VALID,224.218,VALID,21.044,VALID,132.0,VALID,0.0,
2018-12-02, 08:27:06,VALID,916.849,VALID,0.0,VALID,93.104,VALID,223.944,VALID,21.064,VALID,137.0,VALID,0.0,
2018-12-02, 08:28:06,VALID,916.833,VALID,0.0,VALID,92.936,VALID,223.341,VALID,21.062,VALID,131.0,VALID,0.0,
2018-12-02, 08:29:06,VALID,916.818,VALID,0.0,VALID,93.417,VALID,223.034,VALID,21.042,VALID,138.0,VALID,0.0,
2018-12-02, 08:30:06,VALID,916.817,VALID,0.0,VALID,93.74,VALID,223.405,VALID,21.092,VALID,135.0,VALID,0.0,
2018-12-02, 08:31:06,VALID,916.825,VALID,0.0,VALID,93.347,VALID,224.828,VALID,21.142,VALID,135.0,VALID,0.0,
2018-12-02, 08:32:06,VALID,916.83,VALID,0.0,VALID,92.84,VALID,228.084,VALID,21.168,VALID,135.0,VALID,0.0,
2018-12-02, 08:33:06,VALID,916.814,VALID,0.0,VALID,93.067,VALID,233.464,VALID,21.192,VALID,131.0,VALID,0.0,
2018-12-02, 08:34:06,VALID,916.808,VALID,0.0,VALID,92.636,VALID,245.02,VALID,21.218,VALID,135.0,VALID,0.0,
2018-12-02, 08:35:06,VALID,916.817,VALID,0.0,VALID,92.374,VALID,249.967,VALID,21.265,VALID,132.0,VALID,0.0,
2018-12-02, 08:36:06,VALID,916.814,VALID,0.0,VALID,92.036,VALID,246.953,VALID,21.297,VALID,131.0,VALID,0.0,
2018-12-02, 08:37:06,VALID,916.814,VALID,0.0,VALID,92.518,VALID,247.018,VALID,21.333,VALID,135.0,VALID,0.0,
2018-12-02, 08:38:06,VALID,916.833,VALID,0.0,VALID,92.313,VALID,247.216,VALID,21.365,VALID,121.0,VALID,0.0,
2018-12-02, 08:39:06,VALID,916.837,VALID,0.0,VALID,92.24,VALID,248.738,VALID,21.403,VALID,130.0,VALID,0.0,
2018-12-02, 08:40:06,VALID,916.849,VALID,0.0,VALID,91.901,VALID,251.676,VALID,21.417,VALID,124.0,VALID,0.0,
2018-12-02, 08:41:06,VALID,916.846,VALID,0.0,VALID,91.742,VALID,255.256,VALID,21.446,VALID,143.0,VALID,0.0,
2018-12-02, 08:42:06,VALID,916.851,VALID,0.0,VALID,91.72,VALID,259.271,VALID,21.484,VALID,111.0,VALID,0.0,
2018-12-02, 08:43:06,VALID,916.865,VALID,0.0,VALID,92.02,VALID,263.969,VALID,21.545,VALID,111.0,VALID,0.0,
2018-12-02, 08:44:06,VALID,916.874,VALID,0.0,VALID,91.412,VALID,269.375,VALID,21.616,VALID,130.0,VALID,0.0,
2018-12-02, 08:45:06,VALID,916.866,VALID,0.0,VALID,89.821,VALID,275.578,VALID,21.634,VALID,120.0,VALID,0.0,
2018-12-02, 08:46:06,VALID,916.874,VALID,0.0,VALID,90.832,VALID,283.69,VALID,21.73,VALID,135.0,VALID,0.0,
2018-12-02, 08:47:06,VALID,916.879,VALID,0.0,VALID,89.964,VALID,289.741,VALID,21.823,VALID,136.0,VALID,0.0,
2018-12-02, 08:48:06,VALID,916.89,VALID,0.0,VALID,89.066,VALID,291.798,VALID,21.887,VALID,100.0,VALID,0.0,
2018-12-02, 08:49:06,VALID,916.901,VALID,0.0,VALID,87.768,VALID,296.914,VALID,21.918,VALID,119.0,VALID,0.0,
2018-12-02, 08:50:06,VALID,916.91,VALID,0.0,VALID,88.059,VALID,303.434,VALID,22.001,VALID,129.0,VALID,0.0,
2018-12-02, 08:51:06,VALID,916.909,VALID,0.0,VALID,88.515,VALID,310.4,VALID,22.089,VALID,146.0,VALID,0.0,
2018-12-02, 08:52:06,VALID,916.913,VALID,0.0,VALID,88.862,VALID,317.926,VALID,22.226,VALID,122.0,VALID,0.0,
2018-12-02, 08:53:06,VALID,916.929,VALID,0.0,VALID,87.522,VALID,323.451,VALID,22.334,VALID,123.0,VALID,0.0,
2018-12-02, 08:54:06,VALID,916.933,VALID,0.0,VALID,86.402,VALID,326.681,VALID,22.397,VALID,123.0,VALID,0.0,
2018-12-02, 08:55:06,VALID,916.931,VALID,0.0,VALID,85.804,VALID,328.815,VALID,22.416,VALID,112.0,VALID,0.0,
2018-12-02, 08:56:06,VALID,916.925,VALID,0.0,VALID,86.271,VALID,330.431,VALID,22.449,VALID,113.0,VALID,0.0,
2018-12-02, 08:57:06,VALID,916.919,VALID,0.0,VALID,87.056,VALID,331.784,VALID,22.551,VALID,130.0,VALID,0.0,
2018-12-02, 08:58:06,VALID,916.928,VALID,0.0,VALID,86.354,VALID,333.371,VALID,22.647,VALID,115.0,VALID,0.0,
2018-12-02, 08:59:06,VALID,916.924,VALID,0.0,VALID,86.415,VALID,335.774,VALID,22.682,VALID,59.0,VALID,0.0,
2018-12-02, 09:00:06,VALID,916.947,VALID,0.0,VALID,85.736,VALID,338.875,VALID,22.71,VALID,65.0,VALID,0.0,
2018-12-02, 09:01:06,VALID,916.934,VALID,0.0,VALID,86.734,VALID,344.503,VALID,22.811,VALID,124.0,VALID,0.0,
2018-12-02, 09:02:06,VALID,916.939,VALID,0.0,VALID,85.043,VALID,356.21,VALID,22.926,VALID,154.0,VALID,0.0,
2018-12-02, 09:03:06,VALID,916.959,VALID,0.0,VALID,84.13,VALID,366.154,VALID,22.961,VALID,103.0,VALID,0.0,
2018-12-02, 09:04:06,VALID,916.957,VALID,0.0,VALID,85.406,VALID,382.47,VALID,23.041,VALID,57.0,VALID,0.0,
2018-12-02, 09:05:06,VALID,916.959,VALID,0.0,VALID,84.783,VALID,390.413,VALID,23.012,VALID,62.0,VALID,0.0,
2018-12-02, 09:06:06,VALID,916.978,VALID,0.0,VALID,85.455,VALID,405.656,VALID,23.022,VALID,115.0,VALID,0.0,
2018-12-02, 09:07:06,VALID,916.961,VALID,0.0,VALID,83.779,VALID,386.762,VALID,23.006,VALID,117.0,VALID,0.0,
2018-12-02, 09:08:06,VALID,916.985,VALID,0.0,VALID,82.572,VALID,364.068,VALID,23.016,VALID,118.0,VALID,0.0,
2018-12-02, 09:09:06,VALID,916.996,VALID,0.0,VALID,83.822,VALID,344.579,VALID,22.942,VALID,121.0,VALID,0.0,
2018-12-02, 09:10:06,VALID,916.994,VALID,0.0,VALID,83.978,VALID,344.409,VALID,23.003,VALID,117.0,VALID,0.0,
2018-12-02, 09:11:06,VALID,917.023,VALID,0.0,VALID,83.985,VALID,348.668,VALID,23.125,VALID,143.0,VALID,0.0,
2018-12-02, 09:12:06,VALID,917.003,VALID,0.0,VALID,85.004,VALID,354.776,VALID,23.238,VALID,82.0,VALID,0.0,
2018-12-02, 09:13:06,VALID,917.03,VALID,0.0,VALID,82.719,VALID,362.394,VALID,23.214,VALID,66.0,VALID,0.0,
2018-12-02, 09:14:06,VALID,917.057,VALID,0.0,VALID,81.636,VALID,367.57,VALID,23.01,VALID,89.0,VALID,0.0,
2018-12-02, 09:15:06,VALID,917.07,VALID,0.0,VALID,84.938,VALID,367.75,VALID,23.003,VALID,150.0,VALID,0.0,
2018-12-02, 09:16:06,VALID,917.07,VALID,0.0,VALID,83.935,VALID,368.098,VALID,23.061,VALID,137.0,VALID,0.0,
2018-12-02, 09:17:06,VALID,917.089,VALID,0.0,VALID,84.318,VALID,368.226,VALID,23.107,VALID,127.0,VALID,0.0,
2018-12-02, 09:18:06,VALID,917.093,VALID,0.0,VALID,84.866,VALID,369.788,VALID,23.269,VALID,149.0,VALID,0.0,
2018-12-02, 09:19:06,VALID,917.103,VALID,0.0,VALID,82.399,VALID,374.439,VALID,23.39,VALID,112.0,VALID,0.0,
2018-12-02, 09:20:06,VALID,917.096,VALID,0.0,VALID,82.557,VALID,380.369,VALID,23.369,VALID,95.0,VALID,0.0,
2018-12-02, 09:21:06,VALID,917.106,VALID,0.0,VALID,83.729,VALID,386.062,VALID,23.454,VALID,162.0,VALID,0.0,
2018-12-02, 09:22:06,VALID,917.115,VALID,0.0,VALID,81.609,VALID,392.471,VALID,23.563,VALID,115.0,VALID,0.0,
2018-12-02, 09:23:06,VALID,917.112,VALID,0.0,VALID,81.496,VALID,400.25,VALID,23.676,VALID,161.0,VALID,0.0,
2018-12-02, 09:24:06,VALID,917.114,VALID,0.0,VALID,81.338,VALID,409.187,VALID,23.772,VALID,116.0,VALID,0.0,
2018-12-02, 09:25:06,VALID,917.115,VALID,0.0,VALID,79.012,VALID,417.92,VALID,23.766,VALID,123.0,VALID,0.0,
2018-12-02, 09:26:06,VALID,917.111,VALID,0.0,VALID,79.965,VALID,425.611,VALID,23.671,VALID,159.0,VALID,0.0,
2018-12-02, 09:27:06,VALID,917.115,VALID,0.0,VALID,79.713,VALID,433.386,VALID,23.721,VALID,147.0,VALID,0.0,
2018-12-02, 09:28:06,VALID,917.099,VALID,0.0,VALID,80.491,VALID,441.441,VALID,23.823,VALID,138.0,VALID,0.0,
2018-12-02, 09:29:06,VALID,917.103,VALID,0.0,VALID,80.492,VALID,452.878,VALID,23.92,VALID,105.0,VALID,0.0,
2018-12-02, 09:30:06,VALID,917.11,VALID,0.0,VALID,79.542,VALID,466.382,VALID,23.986,VALID,98.0,VALID,0.0,
2018-12-02, 09:31:06,VALID,917.108,VALID,0.0,VALID,80.698,VALID,477.173,VALID,23.993,VALID,105.0,VALID,0.0,
2018-12-02, 09:32:06,VALID,917.117,VALID,0.0,VALID,80.162,VALID,483.818,VALID,24.095,VALID,110.0,VALID,0.0,
2018-12-02, 09:33:06,VALID,917.109,VALID,0.0,VALID,80.501,VALID,473.27,VALID,24.16,VALID,108.0,VALID,0.0,
2018-12-02, 09:34:06,VALID,917.103,VALID,0.0,VALID,77.971,VALID,466.609,VALID,24.254,VALID,134.0,VALID,0.0,
2018-12-02, 09:35:06,VALID,917.12,VALID,0.0,VALID,78.744,VALID,456.613,VALID,24.428,INVALID,360.0,VALID,0.0,
2018-12-02, 09:36:06,VALID,917.114,VALID,0.0,VALID,77.864,VALID,461.159,VALID,24.575,VALID,118.0,VALID,0.0,
2018-12-02, 09:37:06,VALID,917.115,VALID,0.0,VALID,76.87,VALID,547.168,VALID,24.618,VALID,112.0,VALID,0.0,
2018-12-02, 09:38:06,VALID,917.106,VALID,0.0,VALID,76.615,VALID,547.085,VALID,24.566,VALID,106.0,VALID,0.0,
2018-12-02, 09:39:06,VALID,917.105,VALID,0.0,VALID,76.095,VALID,497.129,VALID,24.536,VALID,103.0,VALID,0.0,
2018-12-02, 09:40:06,VALID,917.088,VALID,0.0,VALID,76.897,VALID,447.61,VALID,24.442,VALID,80.0,VALID,0.0,
2018-12-02, 09:41:06,VALID,917.076,VALID,0.0,VALID,78.828,VALID,434.131,VALID,24.424,VALID,132.0,VALID,0.0,
2018-12-02, 09:42:06,VALID,917.095,VALID,0.0,VALID,76.323,VALID,431.907,VALID,24.445,VALID,116.0,VALID,0.0,
2018-12-02, 09:43:06,VALID,917.092,VALID,0.0,VALID,77.605,VALID,427.59,VALID,24.276,VALID,120.0,VALID,0.0,
2018-12-02, 09:44:06,VALID,917.097,VALID,0.0,VALID,78.057,VALID,418.546,VALID,24.251,VALID,113.0,VALID,0.0,
2018-12-02, 09:45:06,VALID,917.096,VALID,0.0,VALID,79.356,VALID,427.665,VALID,24.291,VALID,94.0,VALID,0.0,
2018-12-02, 09:46:06,VALID,917.074,VALID,0.0,VALID,78.365,VALID,438.961,VALID,24.397,VALID,107.0,VALID,0.0,
2018-12-02, 09:47:06,VALID,917.076,VALID,0.0,VALID,76.387,VALID,505.985,VALID,24.335,VALID,88.0,VALID,0.0,
2018-12-02, 09:48:06,VALID,917.066,VALID,0.0,VALID,77.634,VALID,599.905,VALID,24.136,VALID,101.0,VALID,0.0,
2018-12-02, 09:49:06,VALID,917.064,VALID,0.0,VALID,78.328,VALID,773.717,VALID,24.191,VALID,84.0,VALID,0.0,
2018-12-02, 09:50:06,VALID,917.062,VALID,0.0,VALID,80.02,VALID,770.048,VALID,24.351,VALID,85.0,VALID,0.0,
2018-12-02, 09:51:06,VALID,917.077,VALID,0.0,VALID,78.355,VALID,606.44,VALID,24.457,VALID,94.0,VALID,0.0,
2018-12-02, 09:52:06,VALID,917.078,VALID,0.0,VALID,76.448,VALID,489.904,VALID,24.508,VALID,97.0,VALID,0.0,
2018-12-02, 09:53:06,VALID,917.079,VALID,0.0,VALID,76.588,VALID,705.242,VALID,24.515,VALID,102.0,VALID,0.0,
2018-12-02, 09:54:06,VALID,917.087,VALID,0.0,VALID,76.855,VALID,801.201,VALID,24.588,VALID,95.0,VALID,0.0,
2018-12-02, 09:55:06,VALID,917.08,VALID,0.0,VALID,78.488,VALID,784.329,VALID,24.641,VALID,70.0,VALID,0.0,
2018-12-02, 09:56:06,VALID,917.088,VALID,0.0,VALID,78.125,VALID,701.715,VALID,24.724,VALID,97.0,VALID,0.0,
2018-12-02, 09:57:06,VALID,917.078,VALID,0.0,VALID,78.098,VALID,559.396,VALID,24.949,VALID,121.0,VALID,0.0,
2018-12-02, 09:58:06,VALID,917.066,VALID,0.0,VALID,75.559,VALID,622.619,VALID,25.221,VALID,126.0,VALID,0.0,
2018-12-02, 09:59:06,VALID,917.048,VALID,0.0,VALID,74.654,VALID,711.885,VALID,25.445,INVALID,360.0,VALID,0.0,
2018-12-02, 10:00:06,VALID,917.053,VALID,0.0,VALID,73.42,VALID,789.236,VALID,25.473,VALID,124.0,VALID,0.0,
2018-12-02, 10:01:06,VALID,917.031,VALID,0.0,VALID,75.717,VALID,776.451,VALID,25.611,INVALID,360.0,VALID,0.0,
2018-12-02, 10:02:06,VALID,917.009,VALID,0.0,VALID,74.78,VALID,776.752,VALID,25.86,VALID,91.0,VALID,0.0,
2018-12-02, 10:03:06,VALID,917.015,VALID,0.0,VALID,74.103,VALID,903.554,VALID,26.097,VALID,155.0,VALID,0.0,
2018-12-02, 10:04:06,VALID,916.977,VALID,0.0,VALID,72.89,VALID,923.388,VALID,26.124,VALID,211.0,VALID,0.0,
2018-12-02, 10:05:06,VALID,916.978,VALID,0.0,VALID,71.701,VALID,902.392,VALID,25.97,VALID,183.0,VALID,0.0,
2018-12-02, 10:06:06,VALID,916.98,VALID,0.0,VALID,70.629,VALID,908.077,VALID,25.882,VALID,186.0,VALID,0.0,
2018-12-02, 10:07:06,VALID,916.96,VALID,0.0,VALID,72.044,VALID,910.04,VALID,25.683,VALID,108.0,VALID,0.0,
2018-12-02, 10:08:06,VALID,916.954,VALID,0.0,VALID,72.111,VALID,912.85,VALID,25.712,INVALID,360.0,VALID,0.0,
2018-12-02, 10:09:06,VALID,916.929,VALID,0.0,VALID,72.014,VALID,911.341,VALID,25.727,INVALID,360.0,VALID,0.0,
2018-12-02, 10:10:06,VALID,916.921,VALID,0.0,VALID,73.143,VALID,908.445,VALID,25.98,INVALID,360.0,VALID,0.0,
2018-12-02, 10:11:06,VALID,916.915,VALID,0.0,VALID,72.604,VALID,924.976,VALID,26.281,VALID,357.0,VALID,0.0,
2018-12-02, 10:12:06,VALID,916.895,VALID,0.0,VALID,71.022,VALID,942.654,VALID,26.496,VALID,94.0,VALID,0.0,
2018-12-02, 10:13:06,VALID,916.888,VALID,0.0,VALID,71.428,VALID,961.244,VALID,26.223,INVALID,360.0,VALID,0.0,
2018-12-02, 10:14:06,VALID,916.866,VALID,0.0,VALID,73.003,VALID,1022.973,VALID,25.873,INVALID,360.0,VALID,0.0,
2018-12-02, 10:15:06,VALID,916.864,VALID,0.0,VALID,73.533,VALID,556.946,VALID,25.806,INVALID,360.0,VALID,0.0,
2018-12-02, 10:16:06,VALID,916.83,VALID,0.0,VALID,71.52,VALID,448.426,VALID,25.531,INVALID,360.0,VALID,0.0,
2018-12-02, 10:17:06,VALID,916.823,VALID,0.0,VALID,72.009,VALID,594.194,VALID,25.216,INVALID,360.0,VALID,0.0,
2018-12-02, 10:18:06,VALID,916.815,VALID,0.0,VALID,73.143,VALID,730.625,VALID,25.184,INVALID,360.0,VALID,0.0,
2018-12-02, 10:19:06,VALID,916.819,VALID,0.0,VALID,73.461,VALID,603.612,VALID,25.51,INVALID,360.0,VALID,0.0,
2018-12-02, 10:20:06,VALID,916.799,VALID,0.0,VALID,71.587,VALID,495.198,VALID,25.786,INVALID,360.0,VALID,0.0,
2018-12-02, 10:21:06,VALID,916.793,VALID,0.0,VALID,70.291,VALID,535.015,VALID,25.626,INVALID,360.0,VALID,0.0,
2018-12-02, 10:22:06,VALID,916.799,VALID,0.0,VALID,71.246,VALID,539.598,VALID,25.456,INVALID,360.0,VALID,0.0,
2018-12-02, 10:23:06,VALID,916.798,VALID,0.0,VALID,72.664,VALID,539.865,VALID,25.578,INVALID,360.0,VALID,0.0,
2018-12-02, 10:24:06,VALID,916.778,VALID,0.0,VALID,70.775,VALID,534.656,VALID,25.649,INVALID,360.0,VALID,0.0,
2018-12-02, 10:25:06,VALID,916.763,VALID,0.0,VALID,72.032,VALID,531.256,VALID,25.795,INVALID,360.0,VALID,0.0,
2018-12-02, 10:26:06,VALID,916.743,VALID,0.0,VALID,72.942,VALID,546.641,VALID,25.863,INVALID,360.0,VALID,0.0,
2018-12-02, 10:27:06,VALID,916.723,VALID,0.0,VALID,72.425,VALID,572.419,VALID,26.103,INVALID,360.0,VALID,0.0,
2018-12-02, 10:28:06,VALID,916.71,VALID,0.0,VALID,71.207,VALID,602.672,VALID,26.212,INVALID,360.0,VALID,0.0,
2018-12-02, 10:29:06,VALID,916.692,VALID,0.0,VALID,70.059,VALID,612.502,VALID,26.196,INVALID,360.0,VALID,0.0,
2018-12-02, 10:30:06,VALID,916.689,VALID,0.0,VALID,71.026,VALID,624.049,VALID,26.297,INVALID,360.0,VALID,0.0,
2018-12-02, 10:31:06,VALID,916.684,VALID,0.0,VALID,68.943,VALID,654.768,VALID,26.315,INVALID,360.0,VALID,0.0,
2018-12-02, 10:32:06,VALID,916.675,VALID,0.0,VALID,68.757,VALID,648.481,VALID,26.146,INVALID,360.0,VALID,0.0,
2018-12-02, 10:33:06,VALID,916.664,VALID,0.0,VALID,70.947,VALID,680.935,VALID,26.065,INVALID,360.0,VALID,0.0,
2018-12-02, 10:34:06,VALID,916.664,VALID,0.0,VALID,70.975,VALID,830.857,VALID,25.966,INVALID,360.0,VALID,0.0,
2018-12-02, 10:35:06,VALID,916.657,VALID,0.0,VALID,70.39,VALID,760.709,VALID,25.987,INVALID,360.0,VALID,0.0,
2018-12-02, 10:36:06,VALID,916.667,VALID,0.0,VALID,68.84,VALID,691.991,VALID,25.596,INVALID,360.0,VALID,0.0,
2018-12-02, 10:37:06,VALID,916.682,VALID,0.0,VALID,72.299,VALID,648.38,VALID,25.344,INVALID,360.0,VALID,0.0,
2018-12-02, 10:38:06,VALID,916.691,VALID,0.0,VALID,71.76,VALID,632.32,VALID,25.388,INVALID,360.0,VALID,0.0,